Temp
82 82 80 74 63 62 58 66 74 71 71 77 81 76 69 70 67 60 74 77 78 77 80 81 82 83 83 83 83 83 83 83 83 83 83 83 83 83 83 83 83 84 84 84 84 83 84 84 83
81 84 74 67 58 55 58 70 69 73 76 78 80 77 71 65 72 71 72 78 79 79 79 80 82 83 83 83 83 83 83 83 83 83 83 84 84 84 84 84 84 84 84 84 84 84 84 83 84
83 84 67 61 59 56 57 69 70 79 81 80 76 79 73 67 73 73 77 79 79 78 79 80 82 83 83 83 83 83 83 84 83 83 84 84 84 84 84 84 84 84 84 84 84 83 83 83 83
82 73 68 60 61 66 67 72 75 78 80 82 78 71 76 79 75 76 79 79 78 77 79 82 83 83 83 83 83 84 83 83 83 84 84 84 84 84 84 84 83 83 83 83 83 83 83 83 83
81 71 60 59 63 70 72 75 77 75 77 78 78 69 70 77 78 78 78 79 76 76 78 81 83 83 83 83 84 84 83 84 83 84 84 84 84 84 84 84 84 84 83 83 83 83 83 82 83
76 71 60 57 65 71 74 77 78 76 75 76 73 71 68 76 76 77 79 77 78 77 78 80 83 83 83 84 84 84 84 84 83 84 84 84 84 84 84 84 83 83 83 83 83 83 82 82 83
72 66 63 64 65 69 75 82 76 75 75 75 78 66 68 73 78 79 79 78 78 78 77 78 80 82 84 84 84 84 84 83 83 84 84 84 83 84 84 83 83 83 83 83 83 82 82 82 82
76 71 66 66 65 67 78 80 82 78 77 84 80 65 64 74 79 79 78 76 77 77 77 76 76 79 78 80 84 84 83 83 83 84 84 83 84 84 84 83 83 83 83 83 83 83 82 82 82
84 65 62 67 69 72 80 77 81 83 79 83 82 77 78 79 79 76 74 73 75 77 76 76 76 74 75 76 80 83 84 83 83 83 84 83 75 76 80 80 83 83 83 83 83 83 83 83 83
74 63 68 77 77 76 80 79 78 76 77 77 76 80 80 78 76 73 70 70 72 74 74 76 75 75 75 80 76 76 76 75 75 75 76 73 74 74 78 80 83 83 83 83 82 83 83 82 73
76 69 77 81 82 83 79 78 80 74 71 76 72 75 77 76 75 73 72 72 72 74 75 76 76 76 75 77 74 73 73 73 73 74 72 71 71 71 73 73 74 72 80 75 77 75 73 74 72
77 83 83 82 83 82 78 80 78 78 78 82 79 79 78 76 74 74 73 73 74 74 75 76 76 75 75 75 74 74 73 72 71 71 72 71 69 69 69 69 69 70 71 71 71 71 71 71 73
79 82 84 83 83 81 83 78 78 77 83 83 82 80 77 78 78 78 77 77 76 74 76 76 76 76 76 73 74 73 73 72 71 69 70 72 70 69 67 68 68 69 70 70 69 70 70 71 72
83 83 84 83 81 82 79 77 79 79 84 80 79 78 78 78 79 79 78 76 76 76 77 77 76 76 76 74 73 71 71 71 69 69 70 71 70 70 70 68 68 68 69 71 69 68 69 70 71
83 78 79 81 80 79 81 73 73 80 82 79 78 78 79 79 81 79 80 78 78 78 78 77 76 76 76 75 73 71 71 71 70 70 71 71 71 71 71 70 68 69 70 71 70 69 71 70 73
78 75 67 78 79 80 79 65 76 81 80 78 79 78 78 78 80 81 82 81 81 80 79 78 81 76 75 76 73 72 71 71 71 70 70 71 71 71 71 70 69 70 70 69 69 69 69 71 70
70 63 67 74 81 78 75 67 76 80 80 77 79 80 80 79 80 82 83 83 83 81 80 78 80 76 74 74 73 71 71 70 70 69 70 71 71 71 72 71 70 71 70 69 69 69 70 69 71
64 64 70 70 78 78 72 72 74 79 79 77 78 79 80 80 80 83 83 85 84 79 81 80 79 78 73 70 71 71 70 69 69 69 69 71 71 72 71 71 71 72 70 70 69 69 70 70 71
68 64 67 72 80 76 72 69 72 77 78 77 76 78 79 80 83 81 83 84 83 80 79 79 78 74 71 70 70 69 70 70 70 70 71 70 72 72 71 71 71 71 70 71 71 70 69 69 70
70 69 67 74 78 74 69 69 71 76 77 78 78 78 79 79 78 80 80 80 82 77 77 78 78 74 74 72 71 70 70 71 72 73 71 71 71 71 71 71 71 70 70 69 70 70 68 68 69
65 63 67 69 72 74 69 64 68 73 74 78 80 80 80 78 78 78 76 76 78 76 76 76 75 73 73 74 71 70 71 70 69 69 70 71 72 72 71 71 69 70 70 69 69 69 68 67 68
57 75 74 73 65 60 67 55 62 67 68 71 75 78 77 78 80 78 76 75 78 80 79 75 73 72 73 73 72 72 69 69 69 70 72 71 71 71 72 71 71 71 69 69 69 70 69 68 67
72 77 73 71 62 58 61 57 56 63 64 66 69 73 75 78 77 77 76 77 78 79 77 76 72 72 73 72 73 72 70 70 70 70 70 70 71 72 72 72 71 71 70 69 69 69 69 69 68
76 73 66 59 56 52 55 57 55 56 62 66 71 73 75 75 74 74 75 77 76 78 80 77 72 71 72 71 71 71 72 71 69 69 69 70 71 71 71 72 71 71 70 70 70 69 69 71 71
69 59 51 51 49 50 51 55 55 64 67 69 68 71 73 73 70 72 72 72 72 74 76 77 74 71 71 71 71 71 71 71 71 71 70 70 71 71 71 72 71 71 70 70 69 69 69 70 71
61 60 52 45 46 51 56 51 58 69 69 69 71 71 74 74 72 71 72 72 71 74 74 75 71 67 69 69 66 66 72 72 72 73 72 71 71 71 73 71 71 70 71 71 70 69 70 70 72
61 58 61 52 47 50 52 58 63 67 68 71 70 72 71 73 73 74 75 74 72 71 71 72 66 67 69 70 67 65 71 73 74 73 72 73 72 71 72 71 69 69 69 68 69 71 70 70 70
66 69 58 52 46 43 49 51 53 60 65 69 69 70 71 73 74 72 73 72 71 73 72 72 68 69 70 70 67 68 72 74 75 73 73 72 72 71 71 70 70 69 69 68 69 70 71 70 71
65 60 56 55 51 46 44 50 60 63 66 67 68 71 70 71 71 71 72 71 70 71 73 73 71 69 68 69 68 68 72 74 74 73 73 72 72 69 69 70 70 69 68 68 70 71 72 70 70
65 60 56 52 50 46 48 53 64 67 67 69 71 72 69 71 70 71 71 70 69 69 70 71 71 71 70 69 70 71 72 73 71 71 73 72 71 69 69 70 69 67 68 69 71 71 72 71 70
MSLP
1006.55 1006.63 1006.89 1006.92 1007.74 1007.99 1008.04 1007.30 1006.19 1005.89 1005.81 1005.78 1006.00 1006.66 1007.94 1008.87 1009.51 1010.94 1011.06 1011.43 1011.62 1012.14 1012.40 1012.63 1012.72 1012.99 1013.18 1013.25 1013.54 1013.80 1013.98 1014.24 1014.40 1014.55 1014.81 1015.06 1015.24 1015.42 1015.51 1015.53 1015.95 1016.07 1016.32 1016.62 1016.69 1016.71 1016.86 1017.03 1017.27
1006.59 1006.74 1006.90 1007.28 1008.35 1009.01 1008.60 1007.72 1006.79 1006.07 1005.89 1006.03 1006.35 1007.09 1008.00 1009.35 1009.94 1010.58 1011.22 1011.59 1011.76 1012.10 1012.53 1012.76 1013.01 1013.18 1013.55 1013.67 1013.80 1014.04 1014.21 1014.49 1014.70 1014.90 1015.07 1015.20 1015.44 1015.62 1015.67 1015.90 1016.29 1016.47 1016.62 1016.92 1016.94 1016.93 1017.16 1017.37 1017.45
1007.03 1006.87 1007.61 1008.37 1008.85 1009.07 1008.69 1007.39 1006.91 1006.20 1005.82 1005.86 1006.58 1007.25 1008.58 1009.84 1010.32 1010.81 1011.18 1011.59 1011.89 1012.38 1012.73 1012.97 1013.20 1013.39 1013.69 1013.84 1014.03 1014.21 1014.43 1014.64 1014.88 1015.03 1015.15 1015.61 1015.65 1015.70 1015.97 1016.15 1016.46 1016.69 1016.91 1017.14 1017.19 1017.28 1017.41 1017.69 1017.78
1006.78 1007.44 1008.38 1008.78 1009.08 1008.44 1007.75 1006.80 1006.31 1006.11 1006.12 1006.13 1006.94 1008.05 1009.17 1009.48 1010.30 1010.72 1011.40 1011.91 1012.33 1012.68 1012.95 1013.13 1013.38 1013.60 1013.82 1014.04 1014.24 1014.44 1014.66 1014.96 1015.19 1015.31 1015.41 1015.67 1015.93 1016.12 1016.10 1016.47 1016.68 1016.83 1017.01 1017.26 1017.42 1017.49 1017.59 1017.82 1018.02
1006.64 1007.46 1008.42 1008.88 1008.53 1007.89 1007.22 1006.80 1006.41 1006.28 1006.55 1006.84 1007.33 1008.93 1009.75 1010.43 1010.41 1011.14 1011.74 1012.22 1012.55 1013.01 1013.19 1013.40 1013.60 1013.85 1014.10 1014.25 1014.47 1014.66 1015.01 1015.27 1015.47 1015.52 1015.59 1015.83 1015.97 1016.42 1016.55 1016.53 1016.92 1017.01 1017.10 1017.49 1017.62 1017.54 1017.65 1017.84 1018.09
1006.89 1007.58 1008.57 1008.62 1007.95 1007.26 1006.96 1006.35 1006.32 1006.53 1006.86 1007.33 1008.15 1009.10 1010.59 1010.89 1010.89 1011.57 1012.04 1012.54 1012.80 1013.19 1013.36 1013.58 1013.87 1014.07 1014.23 1014.35 1014.54 1014.75 1015.05 1015.41 1015.72 1015.86 1015.89 1015.93 1016.18 1016.45 1016.87 1016.82 1017.06 1017.22 1017.33 1017.55 1017.66 1017.66 1017.80 1017.96 1018.05
1006.94 1007.72 1008.15 1007.97 1007.47 1006.73 1006.16 1005.83 1006.23 1006.44 1006.82 1007.34 1008.00 1009.59 1011.10 1011.44 1011.48 1011.86 1012.30 1012.79 1013.12 1013.17 1013.46 1013.69 1013.88 1014.01 1014.19 1014.35 1014.57 1014.80 1015.10 1015.44 1015.70 1015.92 1016.04 1016.23 1016.36 1016.55 1016.79 1016.95 1017.03 1017.31 1017.54 1017.64 1017.69 1017.78 1017.90 1017.86 1018.00
1006.56 1007.38 1007.59 1007.26 1006.88 1006.24 1005.90 1005.94 1006.26 1006.50 1006.79 1007.13 1007.89 1009.39 1010.87 1011.13 1011.71 1012.31 1012.78 1013.16 1013.40 1013.63 1013.67 1013.80 1013.90 1013.98 1014.12 1014.35 1014.57 1014.83 1015.15 1015.46 1015.66 1015.81 1015.98 1016.18 1016.43 1016.57 1016.77 1016.98 1017.10 1017.24 1017.51 1017.66 1017.79 1017.91 1017.92 1017.89 1018.00
1006.21 1007.07 1007.13 1006.54 1006.11 1005.71 1005.53 1005.88 1006.31 1006.34 1006.89 1007.22 1007.82 1008.54 1009.34 1010.76 1011.72 1012.43 1013.06 1013.55 1013.71 1013.92 1013.98 1013.90 1013.98 1014.15 1014.34 1014.51 1014.69 1014.93 1015.20 1015.40 1015.52 1015.61 1015.80 1016.09 1016.46 1016.72 1016.77 1017.14 1017.15 1017.21 1017.44 1017.56 1017.81 1017.98 1017.98 1017.86 1017.94
1005.96 1006.58 1005.86 1005.17 1005.00 1004.90 1005.11 1005.72 1005.97 1006.54 1007.06 1007.69 1008.22 1008.82 1009.76 1010.71 1011.55 1012.27 1012.96 1013.34 1013.54 1013.71 1013.97 1014.10 1014.07 1014.22 1014.44 1014.62 1014.88 1014.94 1015.20 1015.55 1015.85 1015.84 1015.97 1016.34 1016.69 1016.99 1016.97 1017.16 1017.15 1017.21 1017.46 1017.51 1017.75 1017.94 1017.98 1017.93 1018.13
1004.94 1004.96 1004.50 1004.12 1004.22 1004.29 1004.95 1005.53 1005.96 1006.40 1007.11 1007.43 1008.18 1009.03 1010.04 1010.95 1011.79 1012.35 1012.72 1012.79 1012.75 1013.32 1013.83 1014.06 1014.14 1014.17 1014.33 1014.36 1014.70 1014.96 1015.22 1015.44 1015.73 1015.94 1016.07 1016.37 1016.76 1017.18 1017.23 1017.22 1017.28 1017.40 1017.42 1017.62 1017.70 1017.99 1018.13 1018.17 1018.16
1003.69 1003.59 1003.33 1003.49 1003.91 1004.12 1004.88 1005.27 1005.83 1005.73 1006.03 1006.77 1007.70 1008.36 1009.67 1010.62 1011.17 1011.75 1012.22 1012.49 1012.85 1013.12 1013.20 1013.46 1013.64 1013.98 1014.13 1014.36 1014.53 1014.77 1015.09 1015.32 1015.69 1015.98 1016.26 1016.54 1016.89 1017.26 1017.50 1017.48 1017.39 1017.44 1017.47 1017.60 1017.72 1017.86 1018.03 1018.08 1018.07
1002.77 1002.84 1003.00 1002.99 1003.67 1004.25 1004.76 1005.17 1005.50 1006.05 1006.17 1007.09 1008.08 1008.62 1009.17 1009.86 1010.35 1010.91 1011.37 1012.03 1012.45 1012.81 1012.99 1013.22 1013.55 1013.68 1013.75 1014.19 1014.35 1014.65 1014.79 1015.03 1015.35 1015.77 1016.04 1016.14 1016.51 1016.83 1017.21 1017.42 1017.45 1017.35 1017.33 1017.43 1017.56 1017.59 1017.78 1017.80 1017.88
1002.78 1002.61 1002.81 1003.22 1003.86 1004.27 1004.69 1005.38 1005.52 1006.18 1006.48 1007.36 1008.34 1008.66 1008.84 1009.31 1009.80 1010.75 1011.35 1011.78 1012.12 1012.32 1012.49 1012.78 1013.10 1013.28 1013.38 1013.74 1014.09 1014.52 1014.71 1014.82 1015.21 1015.52 1015.70 1015.84 1016.23 1016.63 1016.86 1017.09 1017.33 1017.33 1017.09 1017.03 1017.25 1017.33 1017.39 1017.46 1017.55
1002.41 1002.93 1003.00 1003.63 1003.77 1004.24 1004.71 1005.64 1005.66 1006.04 1006.72 1007.23 1008.20 1008.66 1009.02 1008.88 1009.43 1009.71 1010.15 1010.86 1011.25 1011.58 1011.78 1012.17 1012.65 1012.94 1013.04 1013.35 1013.75 1014.12 1014.35 1014.68 1015.18 1015.46 1015.43 1015.49 1015.85 1016.15 1016.41 1016.72 1017.08 1017.14 1016.99 1016.92 1017.03 1017.03 1016.88 1017.13 1017.05
1003.02 1003.38 1003.53 1003.09 1003.80 1004.11 1004.55 1005.17 1005.57 1006.07 1006.56 1007.23 1007.89 1008.46 1008.62 1008.77 1008.43 1008.80 1009.29 1010.03 1010.57 1010.95 1011.26 1011.66 1012.12 1012.67 1012.90 1013.13 1013.45 1013.67 1013.93 1014.31 1014.60 1014.93 1015.08 1015.12 1015.32 1015.62 1015.97 1016.26 1016.57 1016.83 1016.95 1016.78 1016.96 1017.03 1016.95 1016.88 1016.96
1004.08 1003.99 1003.75 1003.21 1003.02 1003.97 1004.68 1005.09 1005.15 1005.82 1006.45 1006.97 1007.38 1007.86 1007.90 1008.05 1008.29 1008.30 1008.54 1009.15 1009.57 1009.95 1010.67 1011.34 1011.73 1012.16 1012.43 1012.90 1012.93 1013.30 1013.51 1013.96 1014.15 1014.55 1014.47 1014.50 1014.92 1015.22 1015.56 1015.79 1016.05 1016.26 1016.72 1016.78 1016.79 1016.87 1016.95 1016.82 1016.78
1005.03 1004.69 1003.86 1003.27 1003.02 1003.87 1004.50 1004.71 1005.02 1005.55 1006.05 1006.26 1006.82 1007.25 1007.43 1007.36 1007.29 1007.59 1007.88 1008.43 1009.03 1009.48 1009.92 1010.62 1011.16 1011.57 1012.45 1013.14 1013.32 1013.66 1013.73 1013.85 1013.94 1014.03 1014.02 1014.16 1014.38 1014.74 1015.23 1015.54 1015.87 1016.14 1016.50 1016.64 1016.65 1016.69 1016.69 1016.69 1016.66
1005.00 1004.24 1003.59 1002.78 1002.59 1003.05 1003.66 1004.87 1005.13 1005.52 1006.24 1006.52 1006.67 1006.92 1007.09 1006.98 1007.13 1007.84 1007.84 1008.02 1008.70 1009.30 1009.72 1010.15 1010.71 1011.35 1012.35 1013.14 1013.56 1013.68 1013.49 1013.59 1013.84 1013.59 1013.58 1013.76 1013.88 1014.23 1014.60 1015.12 1015.42 1015.64 1016.04 1016.08 1016.34 1016.40 1016.56 1016.61 1016.54
1004.15 1003.86 1003.15 1002.66 1002.57 1003.14 1003.91 1005.45 1005.23 1005.54 1005.64 1005.75 1006.02 1006.44 1006.71 1007.23 1007.42 1007.34 1007.83 1008.52 1008.60 1008.44 1009.06 1009.99 1010.67 1011.36 1011.97 1012.48 1012.92 1013.33 1013.36 1013.40 1013.17 1013.08 1013.31 1013.43 1013.61 1013.86 1014.26 1014.60 1014.91 1015.22 1015.61 1015.86 1016.04 1016.18 1016.40 1016.48 1016.52
1003.72 1003.16 1002.95 1003.15 1003.38 1003.86 1004.72 1005.59 1005.80 1006.03 1005.95 1005.86 1006.06 1006.28 1006.88 1006.87 1007.13 1006.89 1007.62 1007.79 1008.28 1009.03 1008.83 1009.64 1010.29 1011.12 1011.82 1012.28 1013.14 1013.61 1013.78 1013.53 1013.33 1013.03 1012.91 1013.01 1013.22 1013.40 1013.71 1014.03 1014.49 1014.86 1015.23 1015.39 1015.58 1015.82 1016.07 1016.29 1016.26
1003.14 1002.72 1003.02 1003.58 1004.35 1005.18 1005.54 1006.87 1006.99 1006.94 1006.73 1006.45 1006.22 1006.09 1006.29 1006.28 1006.57 1006.78 1007.37 1007.40 1007.83 1008.52 1009.38 1009.65 1010.58 1011.06 1011.54 1011.94 1012.60 1013.02 1013.25 1013.33 1012.94 1012.51 1012.25 1012.35 1012.50 1012.74 1012.98 1013.36 1013.71 1014.23 1014.64 1014.96 1015.06 1015.22 1015.40 1015.73 1015.95
1002.68 1002.76 1003.75 1004.30 1005.51 1006.20 1006.80 1007.60 1008.51 1007.87 1007.67 1007.04 1006.66 1006.59 1006.73 1006.45 1007.02 1007.03 1007.26 1007.36 1008.36 1009.31 1009.63 1010.13 1010.52 1010.72 1011.28 1011.79 1011.91 1012.44 1012.62 1012.79 1012.80 1012.80 1012.62 1012.23 1012.06 1012.19 1012.62 1013.01 1013.27 1013.69 1014.05 1014.43 1014.89 1015.16 1015.27 1015.34 1015.38
1002.68 1003.46 1004.80 1006.10 1007.00 1007.89 1008.59 1008.80 1009.51 1009.17 1008.39 1007.44 1007.30 1006.88 1007.00 1007.71 1008.02 1007.99 1008.20 1008.51 1008.70 1008.91 1009.47 1009.84 1010.46 1011.61 1012.38 1012.86 1012.47 1012.24 1012.25 1012.30 1012.59 1012.76 1012.81 1012.37 1011.93 1011.99 1012.24 1012.53 1013.06 1013.47 1013.93 1014.17 1014.39 1014.56 1014.78 1014.97 1014.95
1003.33 1004.98 1006.63 1007.96 1009.09 1009.58 1009.16 1009.53 1009.73 1008.88 1008.58 1008.02 1008.19 1007.88 1007.50 1007.79 1008.13 1008.21 1008.57 1009.18 1008.90 1008.92 1009.69 1010.25 1010.88 1012.02 1012.75 1013.10 1014.21 1014.24 1012.08 1012.14 1012.20 1012.15 1012.11 1012.03 1011.90 1011.80 1011.74 1012.04 1012.55 1013.11 1013.48 1013.90 1014.21 1014.62 1014.35 1014.39 1014.67
1003.80 1005.26 1007.13 1008.91 1010.40 1010.17 1009.32 1009.56 1009.29 1008.84 1009.10 1008.86 1008.28 1008.57 1007.97 1008.03 1008.54 1008.62 1008.45 1009.07 1009.34 1009.16 1009.89 1010.23 1011.01 1011.52 1011.13 1011.09 1013.98 1012.99 1013.81 1011.68 1012.06 1011.47 1011.47 1011.23 1011.26 1011.19 1011.47 1011.92 1012.58 1012.92 1013.14 1013.64 1014.06 1014.19 1014.08 1013.84 1013.82
1004.11 1005.47 1006.46 1008.76 1010.65 1011.02 1010.61 1009.74 1009.60 1009.29 1009.12 1008.46 1007.95 1007.78 1008.09 1007.82 1008.40 1008.89 1008.92 1009.46 1009.72 1009.26 1010.36 1010.27 1010.60 1010.53 1009.67 1010.17 1013.62 1012.97 1013.06 1011.10 1011.20 1010.98 1010.84 1010.63 1010.33 1010.44 1011.05 1011.67 1011.84 1011.99 1011.91 1012.05 1012.85 1013.42 1013.45 1013.50 1013.28
1003.35 1005.07 1006.90 1008.88 1010.82 1011.63 1011.33 1010.60 1009.66 1009.55 1009.08 1009.03 1007.65 1007.89 1008.20 1008.27 1008.01 1009.52 1010.01 1010.55 1010.10 1008.92 1010.05 1010.42 1010.47 1010.17 1009.69 1009.52 1011.59 1012.81 1011.47 1010.64 1010.18 1010.43 1010.37 1010.39 1009.61 1010.23 1010.59 1011.15 1011.11 1011.20 1010.55 1010.87 1011.53 1012.61 1012.66 1012.55 1012.29
1004.43 1005.48 1007.43 1009.07 1010.51 1011.55 1011.68 1010.51 1008.74 1008.79 1008.37 1008.28 1008.13 1008.38 1008.54 1007.96 1008.86 1010.35 1010.86 1011.23 1010.40 1009.45 1009.19 1009.98 1010.59 1010.55 1010.58 1010.72 1011.00 1010.94 1009.87 1010.00 1009.86 1010.00 1009.59 1009.83 1009.38 1009.44 1009.94 1010.46 1010.56 1010.39 1010.48 1010.97 1011.19 1011.74 1011.82 1011.39 1011.53
1004.84 1006.06 1007.43 1009.48 1010.97 1011.55 1011.32 1009.95 1008.63 1008.28 1008.35 1008.09 1008.66 1009.25 1008.49 1009.19 1010.20 1010.63 1011.35 1011.53 1010.70 1010.31 1009.87 1010.07 1010.03 1010.46 1011.00 1011.22 1011.07 1010.44 1010.15 1009.81 1009.70 1009.21 1009.43 1009.36 1008.99 1008.96 1009.12 1009.52 1009.84 1009.98 1010.41 1010.50 1010.59 1010.44 1010.49 1010.89 1010.77
Wind_Speed
3 2 2 2 6 6 3 5 3 1 3 4 4 4 9 8 3 3 8 8 15 11 10 13 17 19 19 19 19 19 19 19 19 19 19 19 19 18 17 18 16 15 15 14 13 14 13 14 14
1 1 3 2 7 5 4 6 8 4 6 8 7 4 6 5 5 12 8 13 14 12 10 11 17 18 19 19 19 18 20 20 19 18 18 18 18 17 17 18 16 15 15 14 13 13 12 13 12
2 3 4 4 2 3 4 3 6 4 5 2 5 7 4 3 13 9 12 15 14 12 10 12 17 17 19 19 19 18 18 19 18 18 19 18 18 18 17 18 16 16 15 14 11 10 10 11 11
3 4 4 6 0 3 4 3 5 4 3 7 8 8 5 5 11 8 16 15 12 10 10 16 18 19 18 18 18 17 18 18 17 17 17 17 18 16 18 16 15 15 14 13 12 9 7 10 10
1 3 5 3 3 3 5 6 4 2 4 6 3 5 5 3 15 19 15 13 12 9 8 13 17 17 17 17 17 17 17 17 17 17 18 17 18 15 15 17 13 13 13 12 10 7 5 6 6
2 4 4 2 1 1 3 11 4 2 6 6 8 6 4 12 18 15 14 12 11 11 9 11 17 17 16 17 18 17 17 17 16 15 16 16 17 17 14 15 13 11 10 10 7 5 4 3 3
1 5 2 0 1 2 3 2 4 4 5 5 6 5 4 10 11 14 13 12 12 11 8 9 10 15 19 17 18 17 16 16 16 16 15 14 15 15 15 14 13 11 8 7 6 4 2 0 1
3 4 4 3 5 3 3 3 4 4 2 9 12 7 6 10 13 11 10 10 11 9 9 7 6 9 8 10 18 17 17 16 16 16 16 15 14 13 11 13 12 11 8 6 4 4 4 2 3
3 4 2 4 5 3 7 4 2 2 10 2 6 7 13 18 15 12 10 6 9 10 8 7 7 5 5 6 10 15 17 16 17 16 16 12 3 2 7 9 11 11 9 7 4 2 3 4 4
5 4 9 7 6 5 7 5 7 4 6 4 11 17 19 21 18 16 13 12 12 13 10 9 8 8 6 6 5 6 6 4 3 4 4 3 3 2 4 7 9 9 9 7 5 4 5 4 0
8 7 6 6 5 5 7 5 4 10 2 5 18 21 19 19 15 14 14 14 17 13 9 10 9 8 9 8 4 3 2 3 3 4 4 4 3 1 1 1 1 1 7 2 1 1 2 2 3
7 8 8 6 5 6 7 8 5 5 6 13 20 23 20 20 16 16 15 14 13 14 14 13 12 10 9 4 6 5 4 3 3 4 4 3 1 2 2 2 3 3 2 3 2 2 3 5 5
6 5 7 8 8 5 8 4 5 4 10 14 17 20 22 19 18 16 14 12 12 14 13 14 12 11 10 6 6 5 6 5 5 5 5 4 4 4 4 3 3 4 3 4 4 4 3 4 3
3 4 6 7 7 4 6 2 3 4 14 17 18 18 20 20 20 12 13 13 13 13 15 14 14 12 11 9 7 5 4 4 4 4 5 6 4 4 4 4 4 4 4 4 4 4 4 4 3
3 6 2 6 8 6 7 3 5 13 15 19 18 16 16 19 17 18 18 16 16 14 14 15 14 12 13 12 7 6 6 3 3 4 6 6 5 5 5 4 3 4 4 4 3 4 4 3 3
5 5 4 5 10 3 10 8 5 16 19 17 17 15 17 17 21 18 17 16 15 14 16 14 13 12 12 11 7 5 5 5 6 5 4 6 7 6 4 4 4 3 4 3 3 3 3 4 3
7 3 3 3 10 7 5 4 7 17 17 17 16 15 16 16 17 17 18 17 17 16 14 15 14 14 14 9 6 6 5 4 5 4 4 6 7 7 6 4 4 4 3 4 3 4 3 3 2
5 5 4 7 6 8 7 6 10 18 18 18 16 15 14 14 17 16 16 17 16 13 14 15 13 14 10 3 3 2 3 3 3 4 5 5 5 7 6 5 5 4 3 4 3 4 3 4 3
5 5 10 4 5 6 7 3 11 16 12 12 13 14 15 15 8 5 11 14 14 12 13 15 15 11 9 5 4 3 6 4 5 5 6 7 6 6 6 5 4 4 4 5 5 3 4 2 2
5 7 2 3 1 4 1 7 3 14 16 16 16 15 15 7 6 8 8 8 13 17 15 14 13 10 11 8 5 3 3 4 5 6 5 7 7 6 6 7 6 5 3 4 4 3 2 1 3
4 3 2 4 2 6 3 5 4 4 2 8 13 9 6 9 9 9 7 10 8 10 15 14 13 11 10 9 3 2 0 1 2 4 5 7 8 7 7 6 5 5 4 4 5 4 5 3 2
1 4 0 3 5 2 3 5 4 6 6 7 6 12 10 10 8 8 8 8 11 12 9 9 9 9 9 9 8 9 4 4 4 4 5 6 9 8 7 7 7 6 5 5 4 4 4 4 4
7 3 2 1 4 3 1 6 5 1 7 5 3 4 6 9 5 8 9 6 3 4 6 4 3 6 7 8 10 8 5 4 2 2 5 6 6 9 8 8 8 8 5 5 5 5 5 4 3
2 5 6 5 3 4 7 4 7 2 6 3 5 2 2 5 6 5 7 6 5 2 4 6 6 2 6 2 5 9 10 6 4 4 4 4 4 5 8 8 7 6 5 5 5 6 6 6 5
7 7 4 7 7 4 4 4 7 4 5 4 2 8 2 4 5 7 6 2 3 3 3 5 10 12 11 15 20 17 9 7 8 7 6 5 5 4 7 9 8 5 4 5 3 6 7 7 6
3 8 7 3 3 4 5 1 6 4 0 1 4 4 5 8 8 8 8 3 6 5 4 9 12 7 13 19 19 26 18 7 8 8 6 6 5 5 5 6 5 5 2 3 5 5 7 7 7
2 2 4 9 3 3 4 5 2 3 4 6 7 11 10 12 15 15 16 14 4 6 8 8 7 7 6 13 16 21 26 12 11 11 6 8 7 4 4 8 10 8 7 7 5 7 8 8 7
5 6 3 4 4 3 5 6 6 7 6 6 10 11 8 4 11 11 11 12 2 5 9 7 7 7 10 9 11 16 11 9 9 7 9 8 6 4 8 9 10 8 6 6 6 7 8 9 8
5 4 6 7 4 6 2 8 6 8 8 8 10 13 6 4 5 5 6 10 2 4 5 7 10 9 7 10 8 10 10 9 8 7 6 8 5 6 7 10 9 8 6 5 7 9 11 8 6
4 4 5 7 1 2 4 6 6 7 6 6 7 3 6 5 4 2 5 10 3 5 7 4 5 6 7 8 10 12 11 7 6 4 7 4 6 6 8 9 9 7 6 6 7 10 10 10 8
Wind_Direction
147 65 270 3 55 68 327 343 294 198 35 337 71 110 119 40 29 150 135 134 131 136 142 142 135 132 129 125 126 124 120 119 117 116 115 113 110 111 114 114 117 112 108 105 107 108 110 110 112
92 146 26 57 73 34 321 337 7 21 126 97 85 78 48 68 67 120 128 138 136 138 145 145 138 135 134 129 129 127 124 121 118 117 116 119 119 120 118 111 109 109 110 113 116 118 113 108 109
208 25 69 72 108 143 222 249 293 109 176 98 112 68 77 78 115 130 126 139 137 139 147 150 143 140 139 137 136 133 129 126 123 120 119 119 118 118 115 114 115 116 118 115 116 110 104 103 108
203 14 40 73 281 256 236 209 220 143 58 63 107 76 79 152 143 136 144 138 132 132 144 148 148 147 145 144 140 136 132 130 129 125 122 125 122 122 119 112 112 110 106 106 111 112 109 110 109
158 93 53 89 259 253 276 312 274 7 75 65 73 80 83 86 116 133 139 140 136 131 153 148 153 152 150 147 144 139 141 139 136 136 133 132 128 126 121 116 113 112 112 107 106 105 90 93 109
338 74 36 4 266 247 233 238 170 69 78 98 80 88 47 127 131 141 144 142 139 141 149 156 159 159 158 154 150 150 150 147 144 141 138 138 136 133 129 122 123 121 113 111 117 116 97 71 78
110 92 274 1 88 230 232 86 146 121 129 101 119 78 92 146 141 145 143 141 145 149 153 158 167 167 166 162 160 159 156 154 153 150 147 146 142 142 140 136 135 134 125 123 134 135 123 327 341
134 95 346 283 193 229 162 99 109 137 152 106 137 146 172 169 147 143 133 141 153 152 163 166 171 170 172 169 168 167 168 169 170 170 168 165 164 153 152 148 152 146 142 149 142 177 202 225 292
126 50 257 250 176 180 165 133 85 230 135 175 156 137 143 141 139 133 137 140 155 168 173 174 174 173 171 172 183 181 180 185 183 178 181 186 161 285 173 161 168 158 163 164 178 193 238 243 269
135 144 222 218 157 176 154 158 138 120 157 59 87 112 133 143 150 154 161 167 174 176 184 184 179 177 179 186 200 179 185 176 191 185 180 160 158 190 165 189 181 171 182 178 199 228 251 276 155
172 201 212 217 166 150 134 116 134 118 222 176 147 147 148 150 159 166 177 180 182 176 178 184 185 189 185 194 186 190 178 177 170 191 176 181 166 187 288 182 294 155 214 193 234 316 279 286 210
140 217 165 196 176 151 154 126 110 196 193 146 155 155 156 163 172 175 183 184 182 182 186 184 188 190 197 190 197 185 185 184 167 181 179 147 174 189 216 214 209 212 224 212 210 237 256 265 227
169 174 176 173 170 101 127 146 183 196 143 140 157 160 168 175 185 187 184 183 177 185 192 192 187 195 197 193 200 192 202 192 185 170 196 182 180 183 182 230 227 228 224 216 224 241 256 274 247
278 199 164 140 167 154 126 174 135 133 146 142 166 182 175 182 191 182 182 185 188 189 194 193 193 199 199 203 191 193 204 205 185 186 198 191 177 178 194 192 217 238 224 223 216 225 250 255 246
251 151 2 143 182 172 106 309 227 155 157 154 175 188 191 194 186 190 187 187 190 196 192 196 188 197 203 205 191 186 208 180 208 217 195 190 177 194 187 199 211 237 240 238 228 232 249 253 242
110 65 146 246 157 203 130 257 211 165 161 174 178 195 200 207 201 194 190 191 191 193 196 196 191 192 207 203 198 185 188 186 210 207 198 188 184 189 200 205 201 229 247 228 231 229 246 255 252
4 247 202 261 176 148 186 243 178 170 172 180 189 199 202 207 214 207 196 190 191 193 188 196 195 192 205 202 188 187 182 192 219 192 201 194 184 177 205 217 222 199 222 243 228 228 205 255 262
279 326 265 192 216 169 192 238 173 178 178 188 189 201 213 216 214 208 200 194 188 187 188 196 195 200 185 155 155 135 169 200 212 214 211 208 194 180 189 217 220 204 207 227 223 222 228 230 236
252 222 231 231 202 142 218 82 190 187 192 197 199 205 211 221 226 174 209 194 180 181 186 192 193 189 164 156 186 220 226 212 232 226 218 207 213 186 192 204 202 203 209 212 209 194 223 266 221
268 250 324 28 106 112 155 135 136 191 205 203 200 208 210 205 157 189 181 196 195 175 185 188 196 180 185 180 189 187 191 219 217 222 218 215 205 195 197 208 208 195 212 215 215 183 178 218 190
232 134 127 153 45 26 59 345 34 29 253 206 216 217 187 180 184 200 139 182 198 204 182 188 187 178 187 172 147 51 300 349 180 203 205 214 209 205 203 198 195 203 200 212 194 192 180 214 246
60 213 322 104 68 225 86 267 52 340 359 23 240 197 184 182 176 188 167 184 192 202 202 191 176 176 184 164 173 191 207 214 233 217 211 190 202 211 205 201 199 205 192 212 206 198 179 162 214
217 82 59 23 111 101 343 85 317 348 354 332 338 126 195 201 178 170 186 177 102 108 203 204 190 189 167 188 188 200 206 234 248 247 220 214 195 205 213 215 217 215 199 208 203 195 195 200 176
74 82 49 51 81 37 327 87 318 290 221 275 335 132 294 31 27 348 345 78 79 97 180 166 161 37 23 325 221 206 217 216 218 229 237 238 227 199 201 202 210 211 210 215 211 210 211 205 215
73 54 357 1 16 219 314 63 226 290 284 177 228 307 340 21 15 311 264 211 135 152 55 137 109 86 61 14 331 298 230 223 229 227 219 206 218 209 212 194 200 203 213 234 219 238 227 208 218
102 144 147 215 217 261 333 140 232 208 351 334 165 138 75 19 351 312 292 230 226 202 121 105 105 118 67 41 319 285 280 241 242 227 224 225 218 218 204 188 113 109 137 219 218 226 237 236 216
162 147 187 100 33 69 304 314 138 176 205 129 99 69 37 24 357 345 338 335 305 218 141 133 118 151 142 133 219 262 257 237 226 236 223 235 215 213 168 138 145 153 179 194 220 248 239 220 225
109 160 56 21 144 192 301 286 237 192 192 244 110 102 104 111 311 338 335 324 320 263 129 149 151 158 198 204 227 229 250 239 237 235 222 239 229 162 146 164 171 204 189 207 214 235 231 212 228
26 23 52 111 102 149 170 265 231 178 187 172 151 158 192 125 212 300 321 300 69 76 83 137 154 165 203 218 257 273 283 273 254 231 221 234 205 167 170 191 198 201 200 204 190 213 228 230 220
112 112 113 110 213 111 147 272 308 182 191 161 173 316 112 144 217 266 268 273 60 88 65 108 110 155 199 226 259 276 273 276 271 271 257 248 212 177 196 204 205 218 207 199 210 219 215 218 234